Location: ???????
(52.3000°N, 54.4667°E)
Time: 09:15:07
(UTC+00:00)

Cosmos 2219 - Pass Details

Date: 24 January 2020
Orbit: 833 x 860 km, 71.1° (Epoch: 16 February)

Event Time Altitude Azimuth Distance (km) Brightness Sun altitude
Rises 14:05:59 0° 199° (SSW) 3,369 6.9 -11.0°
Reaches altitude 10° 14:08:25 10° 197° (SSW) 2,441 6.1 -11.3°
Maximum altitude 14:13:58 68° 116° (ESE) 905 3.2 -12.1°
Drops below altitude 10° 14:19:35 10° 35° (NE) 2,470 5.2 -12.9°
Enters shadow 14:19:47 - 34° (NE) 2,549 5.3 -13.0°
